Location: Unspecified
(48.2082°N, 0.0000°E)
Time: 10:28:21
(UTC+00:00)

A-11 Canister half - Pass Details

Date: 24 June 2019
Orbit: 1514 x 1686 km, 47.2° (Epoch: 17 August)

Event Time Altitude Azimuth Distance (km) Brightness Sun altitude
Rises 08:38:04 0° 200° (SSW) 4,918 11.6 42.9°
Reaches altitude 10° 08:41:47 10° 190° (S) 3,920 11.3 43.5°
Maximum altitude 08:49:57 30° 135° (SE) 2,654 11.6 44.8°
Drops below altitude 10° 08:57:55 10° 80° (E) 3,835 11.9 46.1°
Sets 09:01:29 0° 70° (ENE) 4,797 12.1 46.6°
